This demonstration page uses our WeatherBlox Daily Observations layout. Learn more.

Left ArrowRight Arrow

39.08367, -84.50855

Hourly Observations for May 29, 2016

Temp ( °F °C ) Dew Point ( °F °C ) Humidity (%) Winds ( mph kmh ) Pressure ( in mb ) Visibility ( mi km ) Precip ( " mm )
12:53 am 00:53 Clear 64 17.8 64 17.8 100 100 Calm 30.08 1019 8 13 0.00 0.00
1:53 am 01:53 Mostly Cloudy 64 17.8 64 17.8 100 100 Calm 30.09 1019 7 11 0.00 0.00
2:53 am 02:53 Cloudy 65 18.3 65 18.3 100 100 Calm 30.09 1019 8 13 0.00 0.00
3:53 am 03:53 Clear 66 18.9 64 17.8 93 93 Calm 30.08 1019 8 13 0.00 0.00
4:53 am 04:53 Mostly Clear 65 18.3 65 18.3 100 100 Calm 30.09 1019 8 13 0.00 0.00
5:53 am 05:53 Cloudy with Mist and Fog 65 18.3 65 18.3 100 100 Calm 30.09 1019 6 10 0.00 0.00
6:53 am 06:53 Partly Cloudy with Mist and Fog 65 18.3 65 18.3 100 100 Calm 30.10 1019 6 10 0.00 0.03
7:53 am 07:53 Cloudy with Mist and Fog 67 19.4 66 18.9 97 97 SW 3 6 30.11 1020 5 8 0.00 0.00
8:53 am 08:53 Sunny 69 20.6 67 19.4 93 93 Calm 30.11 1020 7 11 0.00 0.00
9:53 am 09:53 Sunny 70 21.1 67 19.4 90 90 Calm 30.11 1020 9 14 0.00 0.00
10:53 am 10:53 Sunny 75 23.9 68 20 79 79 S 5 7 30.11 1020 10 16 0.00 0.00
11:53 am 11:53 Sunny 79 26.1 70 21.1 74 74 VRB 5 7 30.09 1019 10 16 0.00 0.00
12:53 pm 12:53 Partly Cloudy 82 27.8 70 21.1 67 67 SSE 7 11 30.08 1019 10 16 0.00 0.00
1:53 pm 13:53 Mostly Sunny 83 28.3 70 21.1 65 65 S 8 13 30.06 1018 10 16 0.00 0.00
2:53 pm 14:53 Mostly Sunny 84 28.9 68 20 59 59 S 12 19 30.05 1018 10 16 0.00 0.00
3:53 pm 15:53 Mostly Sunny 84 28.9 69 20.6 61 61 S 10 17 30.02 1017 10 16 0.00 0.00
4:53 pm 16:53 Partly Cloudy 84 28.9 68 20 59 59 SSW 12 19 30.00 1016 10 16 0.00 0.00
5:53 pm 17:53 Partly Cloudy 84 28.9 69 20.6 61 61 VRB 5 7 29.98 1015 10 16 0.00 0.00
6:53 pm 18:53 Partly Cloudy 83 28.3 67 19.4 59 59 SW 7 11 29.98 1015 10 16 0.00 0.00
7:40 pm 19:40 Mostly Cloudy with Thunderstorms 75 23.9 71 21.7 88 88 E 3 6 29.97 1015 6 10 0.09 2.29
7:53 pm 19:53 Partly Cloudy 74 23.3 69 20.6 85 85 NNE 3 6 29.98 1015 10 16 0.09 2.29
8:53 pm 20:53 Partly Cloudy 72 22.2 71 21.7 97 97 Calm 29.97 1015 10 16 0.00 0.00
9:53 pm 21:53 Mostly Cloudy with Thunderstorms 71 21.7 70 21.1 96 96 Calm 29.99 1016 8 13 0.00 0.00
10:22 pm 22:22 Cloudy with Nearby Thunderstorms 70 21 70 21 100 100 Calm 29.97 1015 6 10 0.00 0.00
10:38 pm 22:38 Mostly Cloudy 70 21 70 21 100 100 Calm 29.97 1015 7 11 0.00 0.00
10:53 pm 22:53 Mostly Cloudy with Mist and Fog 70 21.1 70 21.1 100 100 Calm 30.00 1016 5 8 0.00 0.00
11:53 pm 23:53 Clear with Mist and Fog 67 19.4 67 19.4 100 100 Calm 30.00 1016 4 6 0.00 0.00

Powered by AerisWeather